Time,TemperatureF,DewpointF,PressureIn,WindDirection,WindDirectionDegrees,WindSpeedMPH,WindSpeedGustMPH,Humidity,HourlyPrecipIn,Conditions,Clouds,dailyrainin,SoftwareType,DateUTC
2015-05-22 00:02:00,51.6,43.7,30.18,North,0,0.0,73.0,74,0.00,,,0.00,meteohub,2015-05-22 06:02:00,
2015-05-22 00:07:00,51.6,43.7,30.18,North,0,0.0,66.0,74,0.00,,,0.00,meteohub,2015-05-22 06:07:00,
2015-05-22 00:12:00,51.6,43.7,30.18,ENE,68,0.0,37.0,74,0.00,,,0.00,meteohub,2015-05-22 06:12:00,
2015-05-22 00:17:00,51.6,43.7,30.18,ESE,112,48.0,0.0,74,0.00,,,0.00,meteohub,2015-05-22 06:17:00,
2015-05-22 00:22:00,51.6,43.7,30.18,North,0,30.0,57.0,74,0.00,,,0.00,meteohub,2015-05-22 06:22:00,
2015-05-22 00:27:00,51.6,43.7,30.18,North,0,37.0,65.0,74,0.00,,,0.00,meteohub,2015-05-22 06:27:00,
2015-05-22 00:32:00,51.6,43.7,30.18,North,0,38.0,65.0,74,0.00,,,0.00,meteohub,2015-05-22 06:32:00,
2015-05-22 00:37:00,51.6,43.7,30.18,North,0,42.0,65.0,74,0.00,,,0.00,meteohub,2015-05-22 06:37:00,
2015-05-22 00:42:00,51.6,43.9,30.18,North,0,17.0,65.0,75,0.00,,,0.00,meteohub,2015-05-22 06:42:00,
2015-05-22 00:47:00,51.6,43.9,30.18,North,0,15.0,59.0,75,0.00,,,0.00,meteohub,2015-05-22 06:47:00,
2015-05-22 00:52:00,51.6,43.9,30.18,North,0,0.0,51.0,75,0.00,,,0.00,meteohub,2015-05-22 06:52:00,
2015-05-22 00:57:00,51.6,43.9,30.18,SE,135,1.0,42.0,75,0.00,,,0.00,meteohub,2015-05-22 06:57:00,
2015-05-22 01:02:00,51.6,43.9,30.18,ENE,68,11.0,42.0,75,0.00,,,0.00,meteohub,2015-05-22 07:02:00,
2015-05-22 01:07:00,51.6,43.9,30.18,SE,135,27.0,27.0,75,0.00,,,0.00,meteohub,2015-05-22 07:07:00,
2015-05-22 01:12:00,51.6,43.9,30.18,SE,135,4.0,27.0,75,0.00,,,0.00,meteohub,2015-05-22 07:12:00,
2015-05-22 01:17:00,51.6,43.9,30.18,North,0,1.0,27.0,75,0.00,,,0.00,meteohub,2015-05-22 07:17:00,
2015-05-22 01:22:00,51.6,43.9,30.18,North,0,3.0,27.0,75,0.00,,,0.00,meteohub,2015-05-22 07:22:00,
2015-05-22 01:27:00,51.6,43.9,30.18,North,0,16.0,26.0,75,0.00,,,0.00,meteohub,2015-05-22 07:27:00,
2015-05-22 01:32:00,51.4,44.1,30.18,SE,135,21.0,39.0,76,0.00,,,0.00,meteohub,2015-05-22 07:32:00,
2015-05-22 01:37:00,51.4,44.1,30.15,ESE,112,24.0,39.0,76,0.00,,,0.00,meteohub,2015-05-22 07:37:00,
2015-05-22 01:42:00,51.4,44.1,30.15,SE,135,20.0,39.0,76,0.00,,,0.00,meteohub,2015-05-22 07:42:00,
2015-05-22 01:47:00,51.3,43.9,30.15,ESE,112,17.0,39.0,76,0.00,,,0.00,meteohub,2015-05-22 07:47:00,
2015-05-22 01:52:00,51.1,43.9,30.15,East,90,26.0,39.0,76,0.00,,,0.00,meteohub,2015-05-22 07:52:00,
2015-05-22 01:57:00,51.1,43.9,30.15,ESE,112,30.0,49.0,76,0.00,,,0.00,meteohub,2015-05-22 07:57:00,
2015-05-22 02:02:00,50.9,43.7,30.15,ESE,112,26.0,49.0,76,0.00,,,0.00,meteohub,2015-05-22 08:02:00,
2015-05-22 02:07:00,50.9,43.9,30.15,ESE,112,23.0,59.0,77,0.00,,,0.00,meteohub,2015-05-22 08:07:00,
2015-05-22 02:12:00,50.9,43.9,30.15,ENE,68,46.0,59.0,77,0.00,,,0.00,meteohub,2015-05-22 08:12:00,
2015-05-22 02:17:00,50.7,43.7,30.15,East,90,30.0,59.0,77,0.00,,,0.00,meteohub,2015-05-22 08:17:00,
2015-05-22 02:22:00,50.7,43.7,30.12,ESE,112,28.0,56.0,77,0.00,,,0.00,meteohub,2015-05-22 08:22:00,
2015-05-22 02:27:00,50.7,43.7,30.12,ESE,112,36.0,56.0,77,0.00,,,0.00,meteohub,2015-05-22 08:27:00,
2015-05-22 02:32:00,50.7,44.1,30.12,North,0,33.0,56.0,78,0.00,,,0.00,meteohub,2015-05-22 08:32:00,
2015-05-22 02:37:00,50.7,44.1,30.12,East,90,37.0,53.0,78,0.00,,,0.00,meteohub,2015-05-22 08:37:00,
2015-05-22 02:42:00,50.7,44.1,30.12,ESE,112,24.0,53.0,78,0.00,,,0.00,meteohub,2015-05-22 08:42:00,
2015-05-22 02:47:00,50.7,44.1,30.12,ESE,112,31.0,53.0,78,0.00,,,0.00,meteohub,2015-05-22 08:47:00,
2015-05-22 02:52:00,50.7,44.1,30.12,ESE,112,13.0,58.0,78,0.00,,,0.00,meteohub,2015-05-22 08:52:00,
2015-05-22 02:57:00,50.5,43.9,30.12,ESE,112,21.0,58.0,78,0.00,,,0.00,meteohub,2015-05-22 08:57:00,
2015-05-22 03:02:00,50.5,43.9,30.12,ESE,112,28.0,58.0,78,0.00,,,0.00,meteohub,2015-05-22 09:02:00,
2015-05-22 03:07:00,50.5,43.9,30.12,ESE,112,29.0,53.0,78,0.00,,,0.00,meteohub,2015-05-22 09:07:00,
2015-05-22 03:12:00,50.5,43.9,30.12,ESE,112,24.0,49.0,78,0.00,,,0.00,meteohub,2015-05-22 09:12:00,
2015-05-22 03:17:00,50.5,43.9,30.12,SE,135,36.0,48.0,78,0.00,,,0.00,meteohub,2015-05-22 09:17:00,
2015-05-22 03:22:00,50.4,43.7,30.12,ESE,112,18.0,50.0,78,0.00,,,0.00,meteohub,2015-05-22 09:22:00,
2015-05-22 03:27:00,50.4,43.7,30.12,North,0,23.0,50.0,78,0.00,,,0.00,meteohub,2015-05-22 09:27:00,
2015-05-22 03:32:00,50.4,43.7,30.12,ESE,112,13.0,47.0,78,0.00,,,0.00,meteohub,2015-05-22 09:32:00,
2015-05-22 03:37:00,50.4,43.7,30.12,ESE,112,23.0,33.0,78,0.00,,,0.00,meteohub,2015-05-22 09:37:00,
2015-05-22 03:42:00,50.4,43.7,30.12,ESE,112,42.0,42.0,78,0.00,,,0.00,meteohub,2015-05-22 09:42:00,
2015-05-22 03:47:00,50.4,44.1,30.12,ENE,68,18.0,46.0,79,0.00,,,0.00,meteohub,2015-05-22 09:47:00,
2015-05-22 03:52:00,50.4,44.1,30.12,ESE,112,14.0,46.0,79,0.00,,,0.00,meteohub,2015-05-22 09:52:00,
2015-05-22 03:57:00,50.4,44.1,30.12,ENE,68,24.0,44.0,79,0.00,,,0.00,meteohub,2015-05-22 09:57:00,
2015-05-22 04:02:00,50.2,43.9,30.12,ESE,112,29.0,52.0,79,0.00,,,0.00,meteohub,2015-05-22 10:02:00,
2015-05-22 04:07:00,50.2,43.9,30.12,ESE,112,24.0,52.0,79,0.00,,,0.00,meteohub,2015-05-22 10:07:00,
2015-05-22 04:12:00,50.2,43.9,30.12,ESE,112,17.0,52.0,79,0.00,,,0.00,meteohub,2015-05-22 10:12:00,
2015-05-22 04:17:00,50.2,43.9,30.12,ENE,68,39.0,43.0,79,0.00,,,0.00,meteohub,2015-05-22 10:17:00,
2015-05-22 04:22:00,50.2,43.9,30.15,East,90,23.0,51.0,79,0.00,,,0.00,meteohub,2015-05-22 10:22:00,
2015-05-22 04:27:00,50.2,43.9,30.15,ENE,68,47.0,51.0,79,0.00,,,0.00,meteohub,2015-05-22 10:27:00,
2015-05-22 04:32:00,50.2,43.9,30.15,ESE,112,16.0,54.0,79,0.00,,,0.00,meteohub,2015-05-22 10:32:00,
2015-05-22 04:37:00,50.2,43.9,30.09,ENE,68,39.0,54.0,79,0.00,,,0.00,meteohub,2015-05-22 10:37:00,
2015-05-22 04:42:00,50.0,43.7,30.09,ENE,68,42.0,51.0,79,0.00,,,0.00,meteohub,2015-05-22 10:42:00,
2015-05-22 04:47:00,50.0,43.7,30.09,ESE,112,46.0,51.0,79,0.00,,,0.00,meteohub,2015-05-22 10:47:00,
2015-05-22 04:52:00,50.0,44.1,30.12,ESE,112,23.0,51.0,80,0.00,,,0.00,meteohub,2015-05-22 10:52:00,
2015-05-22 04:57:00,50.0,44.1,30.12,ESE,112,28.0,46.0,80,0.00,,,0.00,meteohub,2015-05-22 10:57:00,
2015-05-22 05:02:00,50.0,44.1,30.12,ESE,112,28.0,49.0,80,0.00,,,0.00,meteohub,2015-05-22 11:02:00,
2015-05-22 05:07:00,50.0,44.1,30.12,ESE,112,39.0,49.0,80,0.00,,,0.00,meteohub,2015-05-22 11:07:00,
2015-05-22 05:12:00,49.8,43.9,30.12,ENE,68,34.0,48.0,80,0.00,,,0.00,meteohub,2015-05-22 11:12:00,
2015-05-22 05:17:00,49.8,44.2,30.12,East,90,49.0,49.0,81,0.00,,,0.00,meteohub,2015-05-22 11:17:00,
2015-05-22 05:22:00,49.6,44.1,30.12,NE,45,45.0,49.0,81,0.00,,,0.00,meteohub,2015-05-22 11:22:00,
2015-05-22 05:27:00,49.6,44.1,30.12,ENE,68,28.0,49.0,81,0.00,,,0.00,meteohub,2015-05-22 11:27:00,
2015-05-22 05:32:00,49.6,44.1,30.12,ESE,112,23.0,49.0,81,0.00,,,0.00,meteohub,2015-05-22 11:32:00,
2015-05-22 05:37:00,49.5,43.9,30.12,East,90,46.0,51.0,81,0.00,,,0.00,meteohub,2015-05-22 11:37:00,
2015-05-22 05:42:00,49.5,44.2,30.12,ESE,112,37.0,53.0,82,0.00,,,0.00,meteohub,2015-05-22 11:42:00,
2015-05-22 05:47:00,49.5,44.2,30.12,ESE,112,33.0,56.0,82,0.04,,,0.04,meteohub,2015-05-22 11:47:00,
2015-05-22 05:52:00,49.5,44.2,30.15,ENE,68,22.0,56.0,82,0.04,,,0.04,meteohub,2015-05-22 11:52:00,
2015-05-22 05:57:00,49.3,44.1,30.15,ESE,112,46.0,53.0,82,0.04,,,0.04,meteohub,2015-05-22 11:57:00,
2015-05-22 06:02:00,49.3,44.1,30.15,ESE,112,28.0,52.0,82,0.04,,,0.04,meteohub,2015-05-22 12:02:00,
2015-05-22 06:07:00,49.3,44.4,30.12,ESE,112,35.0,51.0,83,0.04,,,0.04,meteohub,2015-05-22 12:07:00,
2015-05-22 06:12:00,49.1,44.2,30.12,ENE,68,32.0,51.0,83,0.04,,,0.04,meteohub,2015-05-22 12:12:00,
2015-05-22 06:17:00,49.1,44.2,30.12,SE,135,24.0,53.0,83,0.04,,,0.04,meteohub,2015-05-22 12:17:00,
2015-05-22 06:22:00,49.1,44.2,30.12,ENE,68,20.0,53.0,83,0.08,,,0.08,meteohub,2015-05-22 12:22:00,
2015-05-22 06:27:00,49.1,44.2,30.12,ESE,112,26.0,53.0,83,0.08,,,0.08,meteohub,2015-05-22 12:27:00,
2015-05-22 06:32:00,49.1,44.2,30.12,ENE,68,32.0,61.0,83,0.08,,,0.08,meteohub,2015-05-22 12:32:00,
2015-05-22 06:37:00,49.1,44.2,30.15,ESE,112,35.0,61.0,83,0.08,,,0.08,meteohub,2015-05-22 12:37:00,
2015-05-22 06:42:00,49.3,44.6,30.15,ENE,68,26.0,61.0,84,0.08,,,0.08,meteohub,2015-05-22 12:42:00,
2015-05-22 06:47:00,49.3,44.6,30.15,ESE,112,25.0,55.0,84,0.08,,,0.08,meteohub,2015-05-22 12:47:00,
2015-05-22 06:52:00,49.1,44.4,30.12,ESE,112,37.0,55.0,84,0.08,,,0.12,meteohub,2015-05-22 12:52:00,
2015-05-22 06:57:00,49.1,44.4,30.12,ENE,68,8.0,51.0,84,0.08,,,0.12,meteohub,2015-05-22 12:57:00,
2015-05-22 07:02:00,49.1,44.4,30.12,ESE,112,31.0,43.0,84,0.08,,,0.12,meteohub,2015-05-22 13:02:00,
2015-05-22 07:07:00,49.1,44.4,30.09,ENE,68,27.0,56.0,84,0.08,,,0.12,meteohub,2015-05-22 13:07:00,
2015-05-22 07:12:00,48.9,44.2,30.09,ENE,68,27.0,56.0,84,0.08,,,0.12,meteohub,2015-05-22 13:12:00,
2015-05-22 07:17:00,48.9,44.2,30.09,ESE,112,25.0,48.0,84,0.04,,,0.12,meteohub,2015-05-22 13:17:00,
2015-05-22 07:22:00,49.1,44.4,30.09,ENE,68,26.0,52.0,84,0.04,,,0.12,meteohub,2015-05-22 13:22:00,
2015-05-22 07:27:00,49.1,44.4,30.09,ENE,68,26.0,52.0,84,0.04,,,0.12,meteohub,2015-05-22 13:27:00,
2015-05-22 07:32:00,49.1,44.4,30.09,ESE,112,23.0,51.0,84,0.04,,,0.12,meteohub,2015-05-22 13:32:00,
2015-05-22 07:37:00,49.1,44.4,30.12,ESE,112,35.0,51.0,84,0.04,,,0.12,meteohub,2015-05-22 13:37:00,
2015-05-22 07:42:00,49.1,44.8,30.12,ESE,112,26.0,46.0,85,0.04,,,0.12,meteohub,2015-05-22 13:42:00,
2015-05-22 07:47:00,49.3,45.0,30.12,ESE,112,46.0,48.0,85,0.04,,,0.16,meteohub,2015-05-22 13:47:00,
2015-05-22 07:52:00,49.3,45.0,30.12,ENE,68,25.0,51.0,85,0.04,,,0.16,meteohub,2015-05-22 13:52:00,
2015-05-22 07:57:00,49.3,45.0,30.12,NE,45,33.0,51.0,85,0.04,,,0.16,meteohub,2015-05-22 13:57:00,
2015-05-22 08:02:00,49.3,45.0,30.12,ESE,112,39.0,51.0,85,0.04,,,0.16,meteohub,2015-05-22 14:02:00,
2015-05-22 08:07:00,49.3,45.0,30.12,ESE,112,45.0,54.0,85,0.04,,,0.16,meteohub,2015-05-22 14:07:00,
2015-05-22 08:12:00,49.3,45.0,30.12,ENE,68,49.0,54.0,85,0.04,,,0.16,meteohub,2015-05-22 14:12:00,
2015-05-22 08:17:00,49.3,45.0,30.12,ENE,68,44.0,54.0,85,0.04,,,0.16,meteohub,2015-05-22 14:17:00,
2015-05-22 08:22:00,49.3,45.0,30.12,ESE,112,32.0,53.0,85,0.04,,,0.16,meteohub,2015-05-22 14:22:00,
2015-05-22 08:27:00,49.3,45.0,30.12,ENE,68,39.0,53.0,85,0.04,,,0.16,meteohub,2015-05-22 14:27:00,
2015-05-22 08:32:00,49.3,45.0,30.12,ENE,68,33.0,53.0,85,0.04,,,0.16,meteohub,2015-05-22 14:32:00,
2015-05-22 08:37:00,49.5,45.1,30.12,ENE,68,24.0,53.0,85,0.04,,,0.16,meteohub,2015-05-22 14:37:00,
2015-05-22 08:42:00,49.5,45.1,30.12,ENE,68,42.0,60.0,85,0.00,,,0.16,meteohub,2015-05-22 14:42:00,
2015-05-22 08:52:00,49.5,45.1,30.09,ENE,68,25.0,60.0,85,0.05,,,0.21,meteohub,2015-05-22 14:52:00,
2015-05-22 08:57:00,49.6,45.3,30.09,ENE,68,45.0,52.0,85,0.05,,,0.21,meteohub,2015-05-22 14:57:00,
2015-05-22 09:02:00,49.6,45.3,30.09,ENE,68,57.0,57.0,85,0.05,,,0.21,meteohub,2015-05-22 15:02:00,
2015-05-22 09:07:00,49.8,45.5,30.12,ENE,68,44.0,57.0,85,0.05,,,0.21,meteohub,2015-05-22 15:07:00,
2015-05-22 09:12:00,50.0,45.7,30.12,ENE,68,47.0,57.0,85,0.05,,,0.21,meteohub,2015-05-22 15:12:00,
2015-05-22 09:17:00,50.0,45.7,30.12,ENE,68,24.0,57.0,85,0.05,,,0.21,meteohub,2015-05-22 15:17:00,
2015-05-22 09:22:00,50.0,45.7,30.12,ENE,68,45.0,57.0,85,0.05,,,0.21,meteohub,2015-05-22 15:22:00,
2015-05-22 09:27:00,50.0,45.7,30.12,ENE,68,21.0,60.0,85,0.05,,,0.21,meteohub,2015-05-22 15:27:00,
2015-05-22 09:32:00,50.0,45.7,30.12,ESE,112,28.0,60.0,85,0.05,,,0.21,meteohub,2015-05-22 15:32:00,
2015-05-22 09:37:00,50.0,45.7,30.12,East,90,35.0,60.0,85,0.05,,,0.21,meteohub,2015-05-22 15:37:00,
2015-05-22 09:42:00,50.2,45.9,30.12,East,90,48.0,53.0,85,0.04,,,0.25,meteohub,2015-05-22 15:42:00,
2015-05-22 09:47:00,50.0,45.7,30.12,ENE,68,43.0,51.0,85,0.04,,,0.25,meteohub,2015-05-22 15:47:00,
2015-05-22 09:52:00,50.0,45.7,30.12,East,90,27.0,51.0,85,0.04,,,0.25,meteohub,2015-05-22 15:52:00,
2015-05-22 09:57:00,50.2,45.9,30.12,NE,45,47.0,49.0,85,0.04,,,0.25,meteohub,2015-05-22 15:57:00,
2015-05-22 10:02:00,50.2,45.9,30.12,ENE,68,34.0,49.0,85,0.04,,,0.25,meteohub,2015-05-22 16:02:00,
2015-05-22 10:07:00,50.4,46.0,30.12,North,0,30.0,49.0,85,0.04,,,0.25,meteohub,2015-05-22 16:07:00,
2015-05-22 10:12:00,50.2,45.9,30.12,NE,45,30.0,54.0,85,0.04,,,0.25,meteohub,2015-05-22 16:12:00,
2015-05-22 10:17:00,50.2,45.9,30.12,ENE,68,43.0,54.0,85,0.04,,,0.25,meteohub,2015-05-22 16:17:00,
2015-05-22 10:22:00,50.2,45.9,30.12,ENE,68,28.0,60.0,85,0.04,,,0.25,meteohub,2015-05-22 16:22:00,
2015-05-22 10:27:00,50.2,45.9,30.12,East,90,30.0,60.0,85,0.04,,,0.25,meteohub,2015-05-22 16:27:00,
2015-05-22 10:32:00,50.4,46.0,30.12,ENE,68,25.0,52.0,85,0.04,,,0.25,meteohub,2015-05-22 16:32:00,
2015-05-22 10:37:00,50.4,46.0,30.09,ENE,68,30.0,56.0,85,0.04,,,0.25,meteohub,2015-05-22 16:37:00,
2015-05-22 10:42:00,50.4,46.0,30.09,ENE,68,28.0,56.0,85,0.00,,,0.25,meteohub,2015-05-22 16:42:00,
2015-05-22 10:47:00,50.5,46.2,30.09,ENE,68,14.0,56.0,85,0.00,,,0.25,meteohub,2015-05-22 16:47:00,
2015-05-22 10:52:00,50.7,46.4,30.12,ENE,68,52.0,54.0,85,0.04,,,0.29,meteohub,2015-05-22 16:52:00,
2015-05-22 10:57:00,50.9,46.6,30.12,ENE,68,46.0,54.0,85,0.04,,,0.29,meteohub,2015-05-22 16:57:00,
2015-05-22 11:02:00,50.9,46.6,30.12,NE,45,24.0,53.0,85,0.04,,,0.29,meteohub,2015-05-22 17:02:00,
2015-05-22 11:07:00,50.9,46.6,30.12,East,90,32.0,52.0,85,0.04,,,0.29,meteohub,2015-05-22 17:07:00,
2015-05-22 11:12:00,51.1,46.8,30.12,ENE,68,40.0,50.0,85,0.04,,,0.29,meteohub,2015-05-22 17:12:00,
2015-05-22 11:22:00,51.4,47.1,30.12,ENE,68,32.0,54.0,85,0.04,,,0.29,meteohub,2015-05-22 17:22:00,
2015-05-22 11:27:00,51.4,47.1,30.12,ENE,68,24.0,54.0,85,0.04,,,0.29,meteohub,2015-05-22 17:27:00,
2015-05-22 11:32:00,51.4,47.1,30.12,ENE,68,52.0,54.0,85,0.04,,,0.29,meteohub,2015-05-22 17:32:00,
2015-05-22 11:37:00,51.6,47.3,30.12,NE,45,23.0,55.0,85,0.04,,,0.29,meteohub,2015-05-22 17:37:00,
2015-05-22 11:42:00,51.6,47.3,30.12,ENE,68,20.0,55.0,85,0.04,,,0.29,meteohub,2015-05-22 17:42:00,
2015-05-22 11:47:00,51.6,47.3,30.12,ENE,68,30.0,55.0,85,0.00,,,0.29,meteohub,2015-05-22 17:47:00,
2015-05-22 11:53:00,51.6,47.3,30.09,East,90,15.0,47.0,85,0.00,,,0.29,meteohub,2015-05-22 17:53:00,
2015-05-22 11:58:00,51.8,47.5,30.09,ENE,68,36.0,46.0,85,0.00,,,0.29,meteohub,2015-05-22 17:58:00,
2015-05-22 12:03:00,52.0,47.7,30.09,ENE,68,28.0,44.0,85,0.00,,,0.29,meteohub,2015-05-22 18:03:00,
2015-05-22 12:08:00,52.2,47.8,30.09,ENE,68,9.0,49.0,85,0.00,,,0.29,meteohub,2015-05-22 18:08:00,
2015-05-22 12:13:00,52.2,47.8,30.09,ENE,68,13.0,49.0,85,0.00,,,0.29,meteohub,2015-05-22 18:13:00,
2015-05-22 12:18:00,52.0,47.3,30.12,NE,45,22.0,49.0,84,0.00,,,0.29,meteohub,2015-05-22 18:18:00,
2015-05-22 12:23:00,52.0,47.3,30.12,ESE,112,23.0,46.0,84,0.00,,,0.29,meteohub,2015-05-22 18:23:00,
2015-05-22 12:28:00,52.0,47.7,30.12,ESE,112,24.0,46.0,85,0.00,,,0.29,meteohub,2015-05-22 18:28:00,
2015-05-22 12:33:00,52.2,47.8,30.12,ESE,112,48.0,48.0,85,0.00,,,0.29,meteohub,2015-05-22 18:33:00,
2015-05-22 12:38:00,52.0,47.7,30.12,East,90,25.0,54.0,85,0.00,,,0.29,meteohub,2015-05-22 18:38:00,
2015-05-22 12:43:00,52.0,47.3,30.12,East,90,24.0,54.0,84,0.00,,,0.29,meteohub,2015-05-22 18:43:00,
2015-05-22 12:48:00,52.2,47.5,30.12,ESE,112,42.0,54.0,84,0.00,,,0.29,meteohub,2015-05-22 18:48:00,
2015-05-22 12:53:00,52.2,47.5,30.12,ENE,68,26.0,51.0,84,0.00,,,0.29,meteohub,2015-05-22 18:53:00,
2015-05-22 12:58:00,52.2,47.8,30.12,ENE,68,33.0,51.0,85,0.00,,,0.29,meteohub,2015-05-22 18:58:00,
2015-05-22 13:03:00,52.3,48.0,30.12,ENE,68,23.0,45.0,85,0.00,,,0.29,meteohub,2015-05-22 19:03:00,
2015-05-22 13:08:00,52.3,48.0,30.12,ENE,68,35.0,47.0,85,0.00,,,0.29,meteohub,2015-05-22 19:08:00,
2015-05-22 13:13:00,52.3,47.7,30.12,ENE,68,19.0,48.0,84,0.00,,,0.29,meteohub,2015-05-22 19:13:00,
2015-05-22 13:18:00,52.2,47.5,30.12,ENE,68,45.0,48.0,84,0.00,,,0.29,meteohub,2015-05-22 19:18:00,
2015-05-22 13:23:00,52.2,47.5,30.12,ENE,68,46.0,54.0,84,0.00,,,0.29,meteohub,2015-05-22 19:23:00,
2015-05-22 13:28:00,52.0,47.3,30.12,ENE,68,39.0,57.0,84,0.00,,,0.29,meteohub,2015-05-22 19:28:00,
2015-05-22 13:33:00,52.0,47.3,30.12,ESE,112,44.0,57.0,84,0.00,,,0.29,meteohub,2015-05-22 19:33:00,
2015-05-22 13:38:00,52.0,47.3,30.12,ENE,68,53.0,57.0,84,0.00,,,0.29,meteohub,2015-05-22 19:38:00,
2015-05-22 13:43:00,52.0,47.3,30.12,ENE,68,13.0,60.0,84,0.00,,,0.29,meteohub,2015-05-22 19:43:00,
2015-05-22 13:48:00,52.0,47.3,30.12,ENE,68,40.0,60.0,84,0.00,,,0.29,meteohub,2015-05-22 19:48:00,
2015-05-22 13:53:00,52.0,47.3,30.12,ENE,68,32.0,60.0,84,0.00,,,0.29,meteohub,2015-05-22 19:53:00,
2015-05-22 13:58:00,52.2,47.5,30.12,ENE,68,28.0,52.0,84,0.00,,,0.29,meteohub,2015-05-22 19:58:00,
2015-05-22 14:03:00,52.2,47.5,30.12,ENE,68,54.0,54.0,84,0.00,,,0.29,meteohub,2015-05-22 20:03:00,
2015-05-22 14:09:00,52.5,48.2,30.12,ESE,112,36.0,47.0,85,0.00,,,0.29,meteohub,2015-05-22 20:09:00,
2015-05-22 14:14:00,52.7,48.4,30.12,ESE,112,47.0,54.0,85,0.00,,,0.29,meteohub,2015-05-22 20:14:00,